User: anonymous   Login
Location: Maiden_LMO
(35.5760°N, 81.2120°W)
Time: 10:39:43
(UTC-05:00)
Language:

ADEOS II - Orbit

View from above orbital plane
View from above orbital plane
View from above satellite
View from above satellite

Ground track
Ground track

The orbit data is extracted from the following two-line orbital elements,

1 27597U 02056A   14355.09875221  .00000676  00000-0  29491-3 0  4795
2 27597 098.2786 352.9791 0002122 112.3173 289.4312 14.26958922625744
Epoch (UTC): 21 December 2014 02:22:12
Eccentricity: 0.0002122
inclination: 98.2786°
perigee height: 800 km
apogee height: 803 km
right ascension of ascending node: 352.9791°
argument of perigee: 112.3173°
revolutions per day: 14.26958922
mean anomaly at epoch: 289.4312°
orbit number at epoch: 62574

The dashed part of the orbit path shows where the satellite is in the earth's shadow,  

DLR